 day,  time,  air_temp(C),  RH(%),  ground_temp10cm(C),  ground_temp20cm(C),  ground_temp40cm(C),  precipitation(mm/h),  Solar_Radiation(MJ/m2h),  lack, 
 05/10/01, 01:00,  10.0,  99,  16.0,  16.9,  17.4,   0.0,  0.00, 
 05/10/01, 02:00,  10.0,  93,  15.8,  16.9,  17.4,   0.0,  0.00, 
 05/10/01, 03:00,  10.7,  88,  15.6,  16.8,  17.4,   0.0,  0.00, 
 05/10/01, 04:00,  11.3,  89,  15.4,  16.7,  17.4,   0.0,  0.00, 
 05/10/01, 05:00,  11.6,  91,  15.3,  16.6,  17.4,   0.0,  0.00, 
 05/10/01, 06:00,  11.8,  91,  15.3,  16.6,  17.4,   0.0,  0.00, 
 05/10/01, 07:00,  12.8,  90,  15.2,  16.5,  17.4,   0.0,  0.15, 
 05/10/01, 08:00,  13.0,  94,  15.2,  16.4,  17.3,   0.0,  0.22, 
 05/10/01, 09:00,  13.2,  91,  15.3,  16.4,  17.3,   0.0,  0.46, 
 05/10/01, 10:00,  13.7,  90,  15.4,  16.3,  17.3,   0.0,  0.90, 
 05/10/01, 11:00,  13.6,  93,  15.6,  16.3,  17.3,   0.0,  0.63, 
 05/10/01, 12:00,  14.3,  94,  15.8,  16.3,  17.3,   0.0,  0.60, 
 05/10/01, 13:00,  14.1,  91,  16.0,  16.3,  17.3,   0.0,  0.33, 
 05/10/01, 14:00,  14.5,  93,  16.0,  16.3,  17.3,   0.0,  0.49, 
 05/10/01, 15:00,  15.0,  91,  16.1,  16.3,  17.3,   0.0,  0.39, 
 05/10/01, 16:00,  14.7,  94,  16.2,  16.3,  17.2,   0.0,  0.23, 
 05/10/01, 17:00,  14.8,  95,  16.3,  16.4,  17.2,   0.0,  0.06, 
 05/10/01, 18:00,  15.2,  93,  16.2,  16.4,  17.2,   0.0,  0.00, 
 05/10/01, 19:00,  15.2,  94,  16.2,  16.4,  17.2,   0.0,  0.00, 
 05/10/01, 20:00,  15.3,  93,  16.2,  16.4,  17.2,   0.0,  0.00, 
 05/10/01, 21:00,  15.3,  94,  16.1,  16.4,  17.2,   0.0,  0.00, 
 05/10/01, 22:00,  15.1,  95,  16.1,  16.4,  17.2,   0.0,  0.00, 
 05/10/01, 23:00,  14.8,  99,  16.1,  16.4,  17.2,   0.0,  0.00, 
 05/10/02, 00:00,  14.8,  99,  16.0,  16.4,  17.2,   0.0,  0.00, 
 05/10/02, 01:00,  14.9,  99,  16.0,  16.4,  17.1,   0.0,  0.00, 
 05/10/02, 02:00,  14.8,  99,  16.0,  16.4,  17.1,   0.0,  0.00, 
 05/10/02, 03:00,  14.5,  99,  16.0,  16.4,  17.1,   0.0,  0.00, 
 05/10/02, 04:00,  14.5,  99,  16.0,  16.4,  17.1,   0.0,  0.00, 
 05/10/02, 05:00,  15.1,  99,  16.0,  16.4,  17.1,   0.0,  0.00, 
 05/10/02, 06:00,  15.3,  98,  15.9,  16.4,  17.1,   0.0,  0.00, 
 05/10/02, 07:00,  15.3,  99,  15.9,  16.4,  17.1,   0.0,  0.00, 
 05/10/02, 08:00,  15.9,  98,  15.9,  16.4,  17.1,   0.0,  0.14, 
 05/10/02, 09:00,  16.0,  99,  16.0,  16.4,  17.1,   0.0,  0.12, 
 05/10/02, 10:00,  16.4,  97,  16.0,  16.4,  17.2,   0.0,  0.22, 
 05/10/02, 11:00,  16.2,  99,  16.1,  16.4,  17.1,   0.0,  0.25, 
 05/10/02, 12:00,  16.6,  99,  16.2,  16.4,  17.2,   0.0,  0.27, 
 05/10/02, 13:00,  16.6,  99,  16.3,  16.4,  17.1,   0.0,  0.27, 
 05/10/02, 14:00,  16.6,  99,  16.4,  16.4,  17.1,   0.5,  0.22, 
 05/10/02, 15:00,  16.5,  99,  16.5,  16.4,  17.1,   0.0,  0.16, 
 05/10/02, 16:00,  16.5,  99,  16.6,  16.4,  17.1,   0.0,  0.16, 
 05/10/02, 17:00,  16.5,  99,  16.6,  16.5,  17.0,   0.5,  0.09, 
 05/10/02, 18:00,  15.7,  99,  16.7,  16.5,  17.0,   2.0,  0.00, 
 05/10/02, 19:00,  15.1,  99,  16.7,  16.5,  17.0,   0.0,  0.00, 
 05/10/02, 20:00,  14.1,  99,  16.6,  16.6,  17.0,   0.0,  0.00, 
 05/10/02, 21:00,  14.2,  98,  16.5,  16.6,  17.0,   0.0,  0.00, 
 05/10/02, 22:00,  13.8,  99,  16.4,  16.6,  17.0,   0.5,  0.00, 
 05/10/02, 23:00,  13.2,  99,  16.4,  16.6,  17.0,   0.0,  0.00, 
 05/10/03, 00:00,  12.5,  99,  16.3,  16.6,  17.0,   0.0,  0.00, 
 05/10/03, 01:00,  12.5,  93,  16.2,  16.6,  17.0,   0.0,  0.00, 
 05/10/03, 02:00,  11.7,  97,  16.1,  16.6,  17.0,   0.0,  0.00, 
 05/10/03, 03:00,  10.6,  98,  15.9,  16.5,  17.0,   0.0,  0.00, 
 05/10/03, 04:00,  10.6,  95,  15.8,  16.5,  17.0,   0.0,  0.00, 
 05/10/03, 05:00,   9.8,  96,  15.6,  16.5,  16.9,   0.0,  0.00, 
 05/10/03, 06:00,   9.9,  78,  15.5,  16.4,  16.9,   0.0,  0.00, 
 05/10/03, 07:00,  10.0,  78,  15.3,  16.4,  17.0,   0.0,  0.16, 
 05/10/03, 08:00,  12.2,  81,  15.1,  16.3,  17.0,   0.0,  0.76, 
 05/10/03, 09:00,  14.4,  67,  15.1,  16.3,  17.0,   0.0,  1.70, 
 05/10/03, 10:00,  15.3,  82,  15.1,  16.2,  17.0,   0.0,  2.27, 
 05/10/03, 11:00,  16.8,  71,  15.6,  16.1,  17.0,   0.0,  2.72, 
 05/10/03, 12:00,  16.9,  71,  16.4,  16.1,  17.0,   0.0,  2.49, 
 05/10/03, 13:00,  16.4,  61,  17.2,  16.1,  17.0,   0.0,  2.86, 
 05/10/03, 14:00,  16.8,  57,  17.8,  16.2,  17.0,   0.0,  2.05, 
 05/10/03, 15:00,  16.6,  60,  18.0,  16.3,  17.0,   0.0,  2.11, 
 05/10/03, 16:00,  15.4,  67,  18.1,  16.5,  17.0,   0.0,  0.83, 
 05/10/03, 17:00,  14.5,  71,  18.0,  16.7,  16.9,   0.0,  0.54, 
 05/10/03, 18:00,  12.2,  93,  17.8,  16.8,  16.9,   0.0,  0.05, 
 05/10/03, 19:00,  13.2,  68,  17.5,  16.9,  16.9,   0.0,  0.00, 
 05/10/03, 20:00,  13.1,  79,  17.2,  16.9,  16.9,   0.0,  0.00, 
 05/10/03, 21:00,  12.1,  86,  17.0,  17.0,  16.9,   0.0,  0.00, 
 05/10/03, 22:00,  11.3,  93,  16.7,  17.0,  16.9,   0.0,  0.00, 
 05/10/03, 23:00,  13.0,  92,  16.5,  16.9,  16.9,   0.0,  0.00, 
 05/10/04, 00:00,  13.1,  94,  16.3,  16.9,  16.9,   0.0,  0.00, 
 05/10/04, 01:00,  12.8,  94,  16.2,  16.8,  17.0,   0.0,  0.00, 
 05/10/04, 02:00,  13.2,  93,  16.1,  16.8,  17.0,   0.0,  0.00, 
 05/10/04, 03:00,  13.6,  91,  16.0,  16.7,  17.0,   0.0,  0.00, 
 05/10/04, 04:00,  13.8,  94,  16.0,  16.7,  17.0,   0.0,  0.00, 
 05/10/04, 05:00,  14.0,  96,  15.9,  16.6,  17.0,   0.0,  0.00, 
 05/10/04, 06:00,  13.5,  99,  15.9,  16.6,  17.0,   0.0,  0.00, 
 05/10/04, 07:00,  14.5,  99,  15.9,  16.5,  17.0,   0.0,  0.02, 
 05/10/04, 08:00,  14.3,  99,  15.9,  16.5,  17.0,   0.0,  0.09, 
 05/10/04, 09:00,  14.8,  99,  15.9,  16.5,  17.0,   0.5,  0.14, 
 05/10/04, 10:00,  15.0,  99,  15.9,  16.4,  17.0,   0.5,  0.21, 
 05/10/04, 11:00,  15.1,  99,  16.0,  16.4,  17.0,   0.0,  0.24, 
 05/10/04, 12:00,  15.1,  99,  16.0,  16.4,  17.0,   0.0,  0.07, 
 05/10/04, 13:00,  15.1,  99,  16.1,  16.4,  17.0,   0.0,  0.08, 
 05/10/04, 14:00,  14.8,  99,  16.1,  16.4,  16.9,   1.5,  0.02, 
 05/10/04, 15:00,  14.6,  99,  16.1,  16.4,  16.8,   3.5,  0.00, 
 05/10/04, 16:00,  12.3,  99,  16.1,  16.4,  16.9,   3.5,  0.00, 
 05/10/04, 17:00,  12.5,  99,  16.0,  16.4,  16.9,   1.0,  0.00, 
 05/10/04, 18:00,  12.5,  99,  15.9,  16.4,  16.9,   0.5,  0.00, 
 05/10/04, 19:00,  12.6,  99,  15.8,  16.3,  16.9,   1.0,  0.00, 
 05/10/04, 20:00,  12.6,  95,  15.7,  16.3,  16.9,   0.0,  0.00, 
 05/10/04, 21:00,  12.1,  99,  15.6,  16.3,  16.9,   1.0,  0.00, 
 05/10/04, 22:00,  11.9,  99,  15.5,  16.3,  16.9,   0.0,  0.00, 
 05/10/04, 23:00,  12.0,  99,  15.5,  16.2,  16.9,   0.5,  0.00, 
 05/10/05, 00:00,  11.8,  99,  15.4,  16.2,  16.9,   0.0,  0.00, 
 05/10/05, 01:00,  11.8,  99,  15.3,  16.1,  16.9,   0.5,  0.00, 
 05/10/05, 02:00,  11.6,  99,  15.3,  16.1,  16.9,   0.0,  0.00, 
 05/10/05, 03:00,  11.4,  99,  15.2,  16.1,  16.8,   0.0,  0.00, 
 05/10/05, 04:00,  11.3,  99,  15.2,  16.0,  16.8,   0.0,  0.00, 
 05/10/05, 05:00,  11.2,  99,  15.1,  16.0,  16.8,   0.0,  0.00, 
 05/10/05, 06:00,  10.9,  99,  15.1,  16.0,  16.8,   0.0,  0.00, 
 05/10/05, 07:00,  11.0,  99,  15.0,  15.9,  16.8,   0.0,  0.00, 
 05/10/05, 08:00,  11.3,  99,  15.0,  15.9,  16.8,   0.0,  0.16, 
 05/10/05, 09:00,  11.6,  99,  15.0,  15.8,  16.8,   0.5,  0.23, 
 05/10/05, 10:00,  11.7,  99,  15.0,  15.8,  16.8,   3.0,  0.27, 
 05/10/05, 11:00,  12.5,  99,  15.0,  15.8,  16.8,   0.5,  0.50, 
 05/10/05, 12:00,  12.8,  99,  15.1,  15.7,  16.7,   0.5,  0.58, 
 05/10/05, 13:00,  12.5,  99,  15.2,  15.7,  16.7,   0.0,  0.54, 
 05/10/05, 14:00,  13.1,  99,  15.4,  15.7,  16.7,   0.0,  0.52, 
 05/10/05, 15:00,  12.5,  99,  15.5,  15.7,  16.7,   0.0,  0.39, 
 05/10/05, 16:00,  12.6,  99,  15.6,  15.7,  16.7,   0.0,  0.38, 
 05/10/05, 17:00,  12.5,  99,  15.6,  15.7,  16.7,   0.0,  0.08, 
 05/10/05, 18:00,  12.1,  99,  15.6,  15.8,  16.6,   0.0,  0.00, 
 05/10/05, 19:00,  12.3,  99,  15.6,  15.8,  16.6,   0.0,  0.00, 
 05/10/05, 20:00,  12.3,  99,  15.5,  15.8,  16.6,   0.0,  0.00, 
 05/10/05, 21:00,  11.6,  99,  15.4,  15.8,  16.6,   0.0,  0.00, 
 05/10/05, 22:00,  11.7,  99,  15.4,  15.8,  16.6,   0.0,  0.00, 
 05/10/05, 23:00,  11.5,  99,  15.3,  15.8,  16.6,   0.0,  0.00, 
 05/10/06, 00:00,  11.6,  99,  15.3,  15.8,  16.6,   0.0,  0.00, 
 05/10/06, 01:00,  11.5,  99,  15.2,  15.8,  16.6,   0.0,  0.00, 
 05/10/06, 02:00,  11.4,  99,  15.1,  15.8,  16.6,   0.0,  0.00, 
 05/10/06, 03:00,  11.2,  99,  15.1,  15.7,  16.6,   0.0,  0.00, 
 05/10/06, 04:00,  11.2,  99,  15.0,  15.7,  16.5,   0.0,  0.00, 
 05/10/06, 05:00,  10.9,  99,  14.9,  15.7,  16.5,   0.0,  0.00, 
 05/10/06, 06:00,  10.7,  99,  14.9,  15.7,  16.5,   0.0,  0.00, 
 05/10/06, 07:00,  11.3,  99,  14.9,  15.6,  16.5,   0.0,  0.13, 
 05/10/06, 08:00,  11.5,  99,  14.8,  15.6,  16.5,   0.0,  0.40, 
 05/10/06, 09:00,  11.4,  99,  14.9,  15.6,  16.5,   0.0,  0.71, 
 05/10/06, 10:00,  12.2,  99,  15.0,  15.6,  16.6,   0.0,  0.87, 
 05/10/06, 11:00,  12.0,  99,  15.2,  15.5,  16.5,   0.0,  0.80, 
 05/10/06, 12:00,  13.2,  99,  15.3,  15.5,  16.5,   0.0,  1.33, 
 05/10/06, 13:00,  15.6,  93,  15.6,  15.6,  16.6,   0.0,  2.66, 
 05/10/06, 14:00,  16.7,  79,  16.2,  15.6,  16.4,   0.5,  2.52, 
 05/10/06, 15:00,  15.9,  81,  16.5,  15.6,  16.4,   0.0,  2.10, 
 05/10/06, 16:00,  15.1,  81,  16.6,  15.7,  16.4,   0.0,  1.34, 
 05/10/06, 17:00,  13.9,  94,  16.5,  15.8,  16.4,   0.0,  0.54, 
 05/10/06, 18:00,  11.8,  99,  16.3,  15.9,  16.4,   0.0,  0.04, 
 05/10/06, 19:00,  11.5,  99,  16.1,  16.0,  16.4,   0.0,  0.00, 
 05/10/06, 20:00,  12.3,  99,  15.9,  16.0,  16.4,   0.0,  0.00, 
 05/10/06, 21:00,  12.3,  99,  15.8,  16.0,  16.4,   0.0,  0.00, 
 05/10/06, 22:00,  10.8,  99,  15.7,  16.0,  16.4,   0.0,  0.00, 
 05/10/06, 23:00,  10.2,  99,  15.5,  16.0,  16.4,   0.0,  0.00, 
 05/10/07, 00:00,  10.5,  99,  15.3,  16.0,  16.4,   0.0,  0.00, 
 05/10/07, 01:00,  11.1,  99,  15.2,  16.0,  16.4,   0.0,  0.00, 
 05/10/07, 02:00,  10.5,  99,  15.1,  15.9,  16.4,   0.0,  0.00, 
 05/10/07, 03:00,  10.5,  94,  15.0,  15.9,  16.4,   0.0,  0.00, 
 05/10/07, 04:00,   9.7,  96,  14.8,  15.8,  16.4,   0.0,  0.00, 
 05/10/07, 05:00,  10.4,  92,  14.7,  15.8,  16.4,   0.0,  0.00, 
 05/10/07, 06:00,  10.1,  92,  14.5,  15.7,  16.4,   0.0,  0.00, 
 05/10/07, 07:00,  11.7,  83,  14.4,  15.6,  16.4,   0.0,  0.15, 
 05/10/07, 08:00,  13.2,  75,  14.3,  15.6,  16.4,   0.0,  0.94, 
 05/10/07, 09:00,  14.4,  70,  14.3,  15.5,  16.5,   0.0,  1.65, 
 05/10/07, 10:00,  16.5,  72,  14.3,  15.5,  16.4,   0.0,  2.27, 
 05/10/07, 11:00,  17.6,  70,  14.8,  15.4,  16.4,   0.0,  2.77, 
 05/10/07, 12:00,  17.3,  74,  15.6,  15.4,  16.4,   0.0,  2.17, 
 05/10/07, 13:00,  17.2,  81,  16.2,  15.4,  16.5,   0.0,  1.49, 
 05/10/07, 14:00,  15.4,  88,  16.6,  15.5,  16.3,   0.0,  0.72, 
 05/10/07, 15:00,  15.2,  92,  16.8,  15.6,  16.4,   0.0,  0.56, 
 05/10/07, 16:00,  13.6,  99,  16.8,  15.7,  16.3,   0.0,  0.11, 
 05/10/07, 17:00,  13.3,  99,  16.7,  15.8,  16.3,   0.5,  0.05, 
 05/10/07, 18:00,  13.1,  99,  16.6,  15.9,  16.3,   0.0,  0.00, 
 05/10/07, 19:00,  14.0,  99,  16.5,  16.0,  16.3,   0.0,  0.00, 
 05/10/07, 20:00,  13.3,  99,  16.4,  16.1,  16.3,   0.0,  0.00, 
 05/10/07, 21:00,  14.5,  99,  16.3,  16.1,  16.3,   4.0,  0.00, 
 05/10/07, 22:00,  14.3,  99,  16.2,  16.1,  16.3,   1.0,  0.00, 
 05/10/07, 23:00,  15.1,  99,  16.1,  16.1,  16.3,   2.0,  0.00, 
 05/10/08, 00:00,  15.6,  99,  16.0,  16.1,  16.3,   0.0,  0.00, 
 05/10/08, 01:00,  16.0,  99,  16.0,  16.1,  16.2,   0.5,  0.00, 
 05/10/08, 02:00,  16.0,  99,  16.0,  16.1,  16.3,   0.0,  0.00, 
 05/10/08, 03:00,  16.2,  99,  16.0,  16.1,  16.3,   0.5,  0.00, 
 05/10/08, 04:00,  15.9,  99,  16.0,  16.1,  16.3,   0.0,  0.00, 
 05/10/08, 05:00,  15.7,  99,  16.0,  16.1,  16.3,   0.0,  0.00, 
 05/10/08, 06:00,  15.8,  99,  15.9,  16.1,  16.3,   0.0,  0.00, 
 05/10/08, 07:00,  15.7,  99,  15.9,  16.1,  16.3,   0.0,  0.01, 
 05/10/08, 08:00,  16.2,  99,  15.9,  16.1,  16.3,   0.0,  0.15, 
 05/10/08, 09:00,  16.2,  99,  16.0,  16.1,  16.3,   0.0,  0.17, 
 05/10/08, 10:00,  16.0,  99,  16.0,  16.0,  16.3,   0.5,  0.05, 
 05/10/08, 11:00,  15.9,  99,  16.0,  16.0,  16.3,  15.5,  0.03, 
 05/10/08, 12:00,  16.0,  99,  16.1,  16.0,  16.3,  18.5,  0.11, 
 05/10/08, 13:00,  15.8,  99,  16.1,  16.0,  16.2,   4.0,  0.18, 
 05/10/08, 14:00,  15.8,  99,  16.1,  16.0,  16.2,   2.5,  0.14, 
 05/10/08, 15:00,  15.1,  99,  16.1,  16.0,  16.3,   4.5,  0.09, 
 05/10/08, 16:00,  14.2,  99,  16.2,  16.1,  16.2,   4.0,  0.06, 
 05/10/08, 17:00,  13.9,  99,  16.1,  16.1,  16.2,   0.5,  0.00, 
 05/10/08, 18:00,  13.0,  99,  16.1,  16.1,  16.3,   0.0,  0.00, 
 05/10/08, 19:00,  12.5,  99,  16.0,  16.1,  16.2,   0.0,  0.00, 
 05/10/08, 20:00,  11.6,  99,  15.9,  16.1,  16.2,   0.0,  0.00, 
 05/10/08, 21:00,  11.1,  99,  15.8,  16.1,  16.4,   0.0,  0.00, 
 05/10/08, 22:00,  10.8,  99,  15.8,  16.1,  16.4,   0.5,  0.00, 
 05/10/08, 23:00,  10.7,  99,  15.6,  16.0,  16.3,   0.0,  0.00, 
 05/10/09, 00:00,  10.7,  99,  15.5,  16.0,  16.3,   0.0,  0.00, 
 05/10/09, 01:00,  10.8,  99,  15.4,  16.0,  16.3,   0.0,  0.00, 
 05/10/09, 02:00,  10.5,  99,  15.4,  15.9,  16.3,   0.0,  0.00, 
 05/10/09, 03:00,  10.5,  99,  15.3,  15.9,  16.3,   0.0,  0.00, 
 05/10/09, 04:00,  10.3,  99,  15.2,  15.9,  16.3,   0.0,  0.00, 
 05/10/09, 05:00,  10.1,  99,  15.1,  15.8,  16.3,   0.0,  0.00, 
 05/10/09, 06:00,  10.1,  99,  15.0,  15.8,  16.3,   0.0,  0.00, 
 05/10/09, 07:00,  10.1,  99,  14.9,  15.7,  16.3,   0.0,  0.03, 
 05/10/09, 08:00,  10.1,  99,  14.9,  15.7,  16.3,   0.0,  0.15, 
 05/10/09, 09:00,  10.1,  99,  14.8,  15.7,  16.3,   0.0,  0.24, 
 05/10/09, 10:00,  10.2,  99,  14.8,  15.6,  16.3,   0.0,  0.37, 
 05/10/09, 11:00,  11.0,  99,  14.8,  15.6,  16.3,   0.5,  0.72, 
 05/10/09, 12:00,  11.2,  99,  14.9,  15.5,  16.2,   0.0,  0.58, 
 05/10/09, 13:00,  11.0,  99,  15.0,  15.5,  16.3,   0.0,  0.54, 
 05/10/09, 14:00,  11.6,  99,  15.1,  15.5,  16.1,   0.0,  0.48, 
 05/10/09, 15:00,  11.9,  99,  15.2,  15.5,  16.2,   0.0,  0.32, 
 05/10/09, 16:00,  11.9,  99,  15.3,  15.5,  16.2,   0.0,  0.40, 
 05/10/09, 17:00,  11.7,  99,  15.3,  15.5,  16.2,   0.0,  0.24, 
 05/10/09, 18:00,  11.3,  99,  15.3,  15.5,  16.2,   0.0,  0.01, 
 05/10/09, 19:00,  11.0,  99,  15.2,  15.5,  16.2,   0.0,  0.00, 
 05/10/09, 20:00,  10.5,  99,  15.1,  15.5,  16.2,   0.0,  0.00, 
 05/10/09, 21:00,  10.4,  99,  15.1,  15.5,  16.2,   0.0,  0.00, 
 05/10/09, 22:00,  10.1,  99,  15.0,  15.5,  16.2,   0.0,  0.00, 
 05/10/09, 23:00,  10.1,  99,  14.8,  15.5,  16.2,   0.0,  0.00, 
 05/10/10, 00:00,   9.8,  99,  14.8,  15.5,  16.2,   0.0,  0.00, 
 05/10/10, 01:00,  10.3,  99,  14.6,  15.4,  16.1,   0.0,  0.00, 
 05/10/10, 02:00,  10.0,  99,  14.5,  15.4,  16.2,   0.0,  0.00, 
 05/10/10, 03:00,  10.5,  87,  14.5,  15.4,  16.1,   0.0,  0.00, 
 05/10/10, 04:00,  10.4,  92,  14.4,  15.3,  16.1,   0.0,  0.00, 
 05/10/10, 05:00,  10.6,  89,  14.3,  15.3,  16.1,   0.0,  0.00, 
 05/10/10, 06:00,  10.5,  91,  14.2,  15.2,  16.1,   0.0,  0.00, 
 05/10/10, 07:00,  11.0,  96,  14.2,  15.2,  16.1,   0.0,  0.21, 
 05/10/10, 08:00,  13.2,  89,  14.2,  15.1,  16.1,   0.0,  0.65, 
 05/10/10, 09:00,  12.3,  99,  14.2,  15.1,  16.0,   0.0,  1.28, 
 05/10/10, 10:00,  14.3,  93,  14.4,  15.1,  16.1,   0.0,  2.10, 
 05/10/10, 11:00,  11.7,  99,  14.8,  15.0,  16.0,   0.0,  1.19, 
 05/10/10, 12:00,  13.8,  94,  15.1,  15.1,  16.1,   0.0,  1.68, 
 05/10/10, 13:00,  15.3,  90,  15.5,  15.1,  16.0,   0.0,  1.69, 
 05/10/10, 14:00,  13.8,  93,  15.8,  15.1,  16.0,   0.0,  1.00, 
 05/10/10, 15:00,  13.8,  94,  16.0,  15.2,  16.0,   0.0,  1.32, 
 05/10/10, 16:00,  12.6,  95,  16.1,  15.3,  16.0,   0.0,  0.34, 
 05/10/10, 17:00,  12.2,  96,  16.1,  15.4,  16.0,   0.0,  0.15, 
 05/10/10, 18:00,  11.5,  99,  16.0,  15.5,  16.0,   0.0,  0.00, 
 05/10/10, 19:00,  11.3,  99,  15.9,  15.6,  16.0,   0.0,  0.00, 
 05/10/10, 20:00,  11.0,  99,  15.7,  15.6,  16.0,   0.0,  0.00, 
 05/10/10, 21:00,  10.8,  99,  15.6,  15.6,  16.0,   0.0,  0.00, 
 05/10/10, 22:00,  10.6,  99,  15.5,  15.6,  16.0,   0.0,  0.00, 
 05/10/10, 23:00,  10.7,  99,  15.4,  15.6,  16.0,   0.0,  0.00, 
 05/10/11, 00:00,  10.6,  99,  15.3,  15.6,  15.9,   0.0,  0.00, 
 05/10/11, 01:00,  10.6,  99,  15.2,  15.6,  16.0,   0.0,  0.00, 
 05/10/11, 02:00,  10.5,  99,  15.1,  15.6,  16.0,   0.0,  0.00, 
 05/10/11, 03:00,  10.5,  99,  15.0,  15.5,  16.0,   0.0,  0.00, 
 05/10/11, 04:00,  10.4,  99,  14.9,  15.5,  16.0,   0.0,  0.00, 
 05/10/11, 05:00,  10.6,  99,  14.8,  15.5,  16.0,   0.0,  0.00, 
 05/10/11, 06:00,  10.2,  99,  14.8,  15.4,  16.0,   0.0,  0.00, 
 05/10/11, 07:00,  10.2,  99,  14.7,  15.4,  16.0,   0.0,  0.09, 
 05/10/11, 08:00,  11.0,  99,  14.6,  15.4,  16.0,   0.0,  0.54, 
 05/10/11, 09:00,  12.2,  99,  14.6,  15.3,  16.0,   0.0,  1.07, 
 05/10/11, 10:00,  12.3,  99,  14.7,  15.3,  16.0,   0.0,  1.16, 
 05/10/11, 11:00,  14.2,  99,  14.9,  15.3,  16.0,   0.0,  1.13, 
 05/10/11, 12:00,  14.9,  99,  15.2,  15.2,  16.0,   0.0,  0.99, 
 05/10/11, 13:00,  14.9,  97,  15.4,  15.3,  16.0,   0.0,  0.72, 
 05/10/11, 14:00,  15.5,  98,  15.6,  15.3,  16.0,   0.0,  0.71, 
 05/10/11, 15:00,  15.1,  99,  15.8,  15.3,  16.0,   0.0,  0.45, 
 05/10/11, 16:00,  14.5,  99,  15.9,  15.4,  15.9,   0.0,  0.28, 
 05/10/11, 17:00,  14.4,  99,  15.9,  15.4,  15.9,   0.0,  0.22, 
 05/10/11, 18:00,  13.9,  99,  15.9,  15.5,  15.9,   0.0,  0.00, 
 05/10/11, 19:00,  13.5,  99,  15.8,  15.5,  15.9,   0.0,  0.00, 
 05/10/11, 20:00,  13.4,  99,  15.8,  15.6,  15.9,   0.0,  0.00, 
 05/10/11, 21:00,  12.6,  99,  15.7,  15.6,  15.9,   0.0,  0.00, 
 05/10/11, 22:00,  12.3,  99,  15.6,  15.6,  15.9,   0.0,  0.00, 
 05/10/11, 23:00,  12.3,  99,  15.6,  15.6,  15.9,   0.0,  0.00, 
 05/10/12, 00:00,  12.3,  99,  15.5,  15.6,  15.9,   0.0,  0.00, 
 05/10/12, 01:00,  12.3,  99,  15.4,  15.6,  15.9,   0.0,  0.00, 
 05/10/12, 02:00,  12.0,  99,  15.4,  15.6,  15.9,   0.0,  0.00, 
 05/10/12, 03:00,  11.9,  99,  15.3,  15.6,  15.9,   0.0,  0.00, 
 05/10/12, 04:00,  11.8,  99,  15.2,  15.6,  15.9,   0.0,  0.00, 
 05/10/12, 05:00,  11.7,  99,  15.1,  15.6,  15.9,   0.0,  0.00, 
 05/10/12, 06:00,  11.7,  99,  15.1,  15.5,  15.9,   0.0,  0.00, 
 05/10/12, 07:00,  11.6,  99,  15.0,  15.5,  15.9,   0.0,  0.07, 
 05/10/12, 08:00,  11.6,  99,  15.0,  15.5,  15.9,   0.0,  0.20, 
 05/10/12, 09:00,  12.0,  99,  15.0,  15.5,  15.9,   0.0,  0.85, 
 05/10/12, 10:00,  12.7,  99,  15.1,  15.4,  15.8,   0.0,  1.01, 
 05/10/12, 11:00,  12.6,  99,  15.3,  15.4,  15.9,   0.0,  0.89, 
 05/10/12, 12:00,  13.8,  99,  15.6,  15.4,  15.9,   0.0,  0.94, 
 05/10/12, 13:00,  15.0,  90,  15.7,  15.4,  15.9,   0.0,  1.42, 
 05/10/12, 14:00,  14.1,  88,  16.0,  15.5,  15.9,   0.0,  0.67, 
 05/10/12, 15:00,  15.0,  85,  16.1,  15.5,  15.8,   0.0,  1.34, 
 05/10/12, 16:00,  14.5,  89,  16.2,  15.6,  15.8,   0.0,  0.99, 
 05/10/12, 17:00,  13.3,  94,  16.1,  15.6,  15.9,   0.0,  0.52, 
 05/10/12, 18:00,  11.2,  99,  16.0,  15.7,  15.9,   0.0,  0.01, 
 05/10/12, 19:00,  10.3,  99,  15.8,  15.7,  15.9,   0.0,  0.00, 
 05/10/12, 20:00,  10.1,  99,  15.5,  15.7,  15.9,   0.0,  0.00, 
 05/10/12, 21:00,   9.3,  99,  15.3,  15.7,  15.9,   0.0,  0.00, 
 05/10/12, 22:00,   8.1,  99,  15.1,  15.7,  15.9,   0.0,  0.00, 
 05/10/12, 23:00,   9.5,  99,  14.9,  15.7,  15.9,   0.0,  0.00, 
 05/10/13, 00:00,   9.3,  99,  14.7,  15.6,  15.8,   0.0,  0.00, 
 05/10/13, 01:00,   8.1,  99,  14.6,  15.5,  15.9,   0.0,  0.00, 
 05/10/13, 02:00,   7.7,  99,  14.4,  15.5,  15.9,   0.0,  0.00, 
 05/10/13, 03:00,   7.3,  99,  14.2,  15.4,  15.9,   0.0,  0.00, 
 05/10/13, 04:00,   7.3,  99,  14.0,  15.3,  15.9,   0.0,  0.00, 
 05/10/13, 05:00,   7.0,  99,  13.8,  15.3,  15.9,   0.0,  0.00, 
 05/10/13, 06:00,   6.4,  99,  13.6,  15.2,  15.9,   0.0,  0.00, 
 05/10/13, 07:00,   7.3,  99,  13.4,  15.1,  15.9,   0.0,  0.13, 
 05/10/13, 08:00,  10.4,  99,  13.3,  15.0,  15.9,   0.0,  0.93, 
 05/10/13, 09:00,  11.9,  85,  13.2,  14.9,  15.9,   0.0,  1.70, 
 05/10/13, 10:00,  13.5,  86,  13.2,  14.8,  15.9,   0.0,  2.25, 
 05/10/13, 11:00,  15.8,  70,  13.7,  14.7,  15.8,   0.0,  2.64, 
 05/10/13, 12:00,  15.6,  77,  14.5,  14.7,  15.9,   0.0,  2.79, 
 05/10/13, 13:00,  17.7,  67,  15.4,  14.7,  15.9,   0.0,  2.70, 
 05/10/13, 14:00,  17.5,  70,  16.1,  14.8,  15.8,   0.0,  2.35, 
 05/10/13, 15:00,  16.4,  78,  16.6,  14.9,  15.8,   0.0,  1.91, 
 05/10/13, 16:00,  15.4,  85,  16.6,  15.2,  15.8,   0.0,  1.00, 
 05/10/13, 17:00,  13.9,  91,  16.4,  15.2,  15.8,   0.0,  0.50, 
 05/10/13, 18:00,  12.1,  98,  16.3,  15.3,  15.8,   0.0,  0.01, 
 05/10/13, 19:00,  11.6,  99,  16.1,  15.4,  15.8,   0.0,  0.00, 
 05/10/13, 20:00,  11.1,  99,  15.9,  15.5,  15.8,   0.0,  0.00, 
 05/10/13, 21:00,  10.9,  99,  15.6,  15.6,  15.7,   0.0,  0.00, 
 05/10/13, 22:00,  10.1,  99,  15.5,  15.6,  15.7,   0.0,  0.00, 
 05/10/13, 23:00,  10.9,  99,  15.3,  15.6,  15.7,   0.0,  0.00, 
 05/10/14, 00:00,  10.9,  99,  15.1,  15.5,  15.7,   0.0,  0.00, 
 05/10/14, 01:00,   9.5,  99,  15.0,  15.5,  15.7,   0.0,  0.00, 
 05/10/14, 02:00,  10.0,  99,  14.9,  15.5,  15.8,   0.0,  0.00, 
 05/10/14, 03:00,  10.1,  99,  14.7,  15.4,  15.8,   0.0,  0.00, 
 05/10/14, 04:00,  10.3,  99,  14.6,  15.4,  15.8,   0.0,  0.00, 
 05/10/14, 05:00,   9.5,  99,  14.5,  15.3,  15.8,   0.0,  0.00, 
 05/10/14, 06:00,   8.7,  99,  14.4,  15.3,  15.8,   0.0,  0.00, 
 05/10/14, 07:00,   9.0,  99,  14.2,  15.2,  15.8,   0.0,  0.07, 
 05/10/14, 08:00,  12.4,  92,  14.1,  15.2,  15.8,   0.0,  0.87, 
 05/10/14, 09:00,  14.3,  85,  14.0,  15.1,  15.6,   0.0,  1.61, 
 05/10/14, 10:00,  15.3,  85,  14.1,  15.1,  15.8,   0.0,  2.18, 
 05/10/14, 11:00,  16.4,  83,  14.6,  15.0,  15.8,   0.0,  2.09, 
 05/10/14, 12:00,  18.6,  74,  15.2,  15.0,  15.8,   0.0,  2.60, 
 05/10/14, 13:00,  18.3,  75,  16.0,  15.0,  15.8,   0.0,  2.57, 
 05/10/14, 14:00,  17.6,  80,  16.6,  15.1,  15.7,   0.0,  1.78, 
 05/10/14, 15:00,  16.2,  83,  17.0,  15.2,  15.7,   0.0,  0.74, 
 05/10/14, 16:00,  15.1,  87,  17.0,  15.4,  15.7,   0.0,  0.33, 
 05/10/14, 17:00,  14.0,  89,  16.9,  15.5,  15.7,   0.0,  0.06, 
 05/10/14, 18:00,  12.5,  99,  16.8,  15.6,  15.7,   0.0,  0.00, 
 05/10/14, 19:00,  12.6,  99,  16.6,  15.7,  15.7,   0.0,  0.00, 
 05/10/14, 20:00,  12.0,  99,  16.4,  15.8,  15.7,   0.0,  0.00, 
 05/10/14, 21:00,  12.0,  99,  16.2,  15.9,  15.7,   0.0,  0.00, 
 05/10/14, 22:00,  12.0,  99,  16.1,  15.9,  15.7,   0.0,  0.00, 
 05/10/14, 23:00,  11.8,  99,  15.9,  15.9,  15.7,   0.0,  0.00, 
 05/10/15, 00:00,  11.3,  99,  15.8,  15.9,  15.7,   0.0,  0.00, 
 05/10/15, 01:00,  11.3,  99,  15.6,  15.8,  15.7,   0.0,  0.00, 
 05/10/15, 02:00,  11.2,  99,  15.5,  15.8,  15.7,   0.0,  0.00, 
 05/10/15, 03:00,  10.9,  99,  15.4,  15.8,  15.8,   0.0,  0.00, 
 05/10/15, 04:00,  11.0,  99,  15.2,  15.7,  15.8,   1.5,  0.00, 
 05/10/15, 05:00,  12.2,  99,  15.1,  15.7,  15.8,   1.0,  0.00, 
 05/10/15, 06:00,  11.0,  99,  15.0,  15.6,  15.8,   1.0,  0.00, 
 05/10/15, 07:00,  11.5,  99,  14.9,  15.6,  15.8,   0.5,  0.00, 
 05/10/15, 08:00,  12.6,  99,  14.8,  15.5,  15.8,   2.0,  0.06, 
 05/10/15, 09:00,  14.1,  99,  14.7,  15.5,  15.8,   1.0,  0.29, 
 05/10/15, 10:00,  13.2,  99,  14.8,  15.4,  15.8,   0.5,  0.50, 
 05/10/15, 11:00,  13.5,  99,  14.9,  15.4,  15.8,   0.5,  0.46, 
 05/10/15, 12:00,  13.9,  99,  15.0,  15.3,  15.8,   0.0,  0.63, 
 05/10/15, 13:00,  14.4,  99,  15.2,  15.3,  15.8,   0.0,  0.89, 
 05/10/15, 14:00,  13.7,  99,  15.4,  15.3,  15.8,   1.5,  0.20, 
 05/10/15, 15:00,  14.0,  99,  15.5,  15.3,  15.7,   1.5,  0.25, 
 05/10/15, 16:00,  13.9,  99,  15.5,  15.4,  15.8,   0.5,  0.24, 
 05/10/15, 17:00,  13.7,  99,  15.5,  15.4,  15.8,   2.5,  0.02, 
 05/10/15, 18:00,  13.7,  99,  15.4,  15.4,  15.8,   5.5,  0.00, 
 05/10/15, 19:00,  13.5,  99,  15.3,  15.4,  15.7,   2.5,  0.00, 
 05/10/15, 20:00,  13.4,  99,  15.2,  15.4,  15.7,   2.5,  0.00, 
 05/10/15, 21:00,  13.3,  99,  15.1,  15.4,  15.7,   3.0,  0.00, 
 05/10/15, 22:00,  13.4,  99,  15.1,  15.4,  15.6,   3.5,  0.00, 
 05/10/15, 23:00,  12.4,  99,  15.0,  15.4,  15.7,   2.0,  0.00, 
 05/10/16, 00:00,  11.2,  99,  14.9,  15.3,  15.7,   2.5,  0.00, 
 05/10/16, 01:00,  11.3,  99,  14.8,  15.3,  15.7,   1.5,  0.00, 